CYAT

Attawapiskat Airport

Attawapiskat, Canada
Issued Wind Visibility Ceiling Temperature Dew Point Humidity Barometer
Sep-26
01:30 UTC
  9 miles Overcast
2,300' AGL
C
45° F
C
41° F
87% 30.14" Hg
1020.8 hPa
MVFR
Sep-26
01:00 UTC
  9 miles Overcast
2,700' AGL
C
45° F
C
43° F
93% 30.13" Hg
1020.5 hPa
MVFR
Sep-26
00:17 UTC
  9 miles Overcast
2,500' AGL
C
45° F
C
43° F
93% 30.12" Hg
1020.1 hPa
MVFR
Sep-26
00:00 UTC
  9 miles Overcast
2,300' AGL
C
46° F
C
43° F
87% 30.11" Hg
1019.8 hPa
MVFR
Sep-25
23:00 UTC
  9 miles Overcast
2,100' AGL
C
46° F
C
45° F
93% 30.09" Hg
1019.1 hPa
MVFR
Sep-25
22:00 UTC
  9 miles Overcast
1,500' AGL
C
48° F
C
46° F
94% 30.06" Hg
1018.1 hPa
MVFR
Sep-25
21:12 UTC
  6 miles Overcast
1,200' AGL
C
48° F
C
46° F
94% 30.04" Hg
1017.4 hPa
MVFR
Sep-25
21:04 UTC
  4 miles Broken
700' AGL
C
48° F
C
46° F
94% 30.03" Hg
1017.2 hPa
IFR
Sep-25
20:54 UTC
  6 miles Broken
900' AGL
C
48° F
C
46° F
94% 30.03" Hg
1017.1 hPa
IFR
Sep-25
20:43 UTC
  5 miles Overcast
900' AGL
C
48° F
C
46° F
94% 30.02" Hg
1016.8 hPa
IFR
Sep-25
20:04 UTC
  9 miles Overcast
900' AGL
C
48° F
C
46° F
94% 30" Hg
1016.1 hPa
IFR
Sep-25
19:54 UTC
  9 miles Broken
900' AGL
C
48° F
C
46° F
94% 29.99" Hg
1015.9 hPa
IFR
Sep-25
19:43 UTC
  7 miles Broken
900' AGL
C
48° F
C
46° F
94% 29.99" Hg
1015.6 hPa
IFR
Sep-25
19:30 UTC
  4 miles Broken
900' AGL
C
48° F
C
48° F
100% 29.98" Hg
1015.4 hPa
IFR
Sep-25
19:17 UTC
  8 miles Broken
700' AGL
C
48° F
C
48° F
100% 29.97" Hg
1015.1 hPa
IFR
Sep-25
19:00 UTC
  3 miles Broken
700' AGL
10° C
50° F
C
48° F
94% 29.96" Hg
1014.6 hPa
IFR
Sep-25
18:57 UTC
  3 miles Broken
700' AGL
10° C
50° F
C
48° F
94% 29.95" Hg
1014.5 hPa
IFR
Sep-25
18:43 UTC
  3 miles Broken
700' AGL
10° C
50° F
C
48° F
94% 29.94" Hg
1014.2 hPa
IFR
Sep-25
18:29 UTC
  2 1/2 miles Broken
700' AGL
10° C
50° F
C
48° F
94% 29.93" Hg
1013.8 hPa
IFR
Sep-25
18:19 UTC
  3 miles Broken
700' AGL
10° C
50° F
C
48° F
94% 29.93" Hg
1013.6 hPa
IFR
Sep-25
18:04 UTC
  2 1/2 miles Broken
700' AGL
10° C
50° F
C
48° F
94% 29.92" Hg
1013.3 hPa
IFR
Sep-25
17:49 UTC
  2 1/2 miles Broken
500' AGL
10° C
50° F
C
48° F
94% 29.91" Hg
1013.1 hPa
IFR
Sep-25
17:38 UTC
  2 1/2 miles Broken
500' AGL
10° C
50° F
C
48° F
94% 29.9" Hg
1012.7 hPa
IFR
Sep-25
17:31 UTC
  3 miles Broken
500' AGL
10° C
50° F
C
48° F
94% 29.89" Hg
1012.4 hPa
IFR
Sep-25
17:27 UTC
  4 miles Broken
800' AGL
10° C
50° F
C
48° F
94% 29.88" Hg
1012.2 hPa
IFR
Sep-25
17:17 UTC
  3 miles Overcast
800' AGL
10° C
50° F
C
48° F
94% 29.88" Hg
1012.1 hPa
IFR
Sep-25
16:55 UTC
  2 1/2 miles Broken
600' AGL
10° C
50° F
C
48° F
94% 29.88" Hg
1011.9 hPa
IFR
Sep-25
16:26 UTC
  4 miles Broken
600' AGL
10° C
50° F
C
48° F
94% 29.85" Hg
1011.1 hPa
IFR
Sep-25
16:14 UTC
  3 miles Broken
600' AGL
10° C
50° F
C
48° F
94% 29.85" Hg
1010.9 hPa
IFR
Sep-25
15:55 UTC
  2 1/2 miles Broken
600' AGL
10° C
50° F
10° C
50° F
100% 29.83" Hg
1010.5 hPa
IFR
Sep-25
15:54 UTC
  2 1/2 miles Broken
800' AGL
10° C
50° F
10° C
50° F
100% 29.83" Hg
1010.5 hPa
IFR
Sep-25
15:01 UTC
  2 1/4 miles Overcast
600' AGL
10° C
50° F
C
48° F
94% 29.8" Hg
1009.4 hPa
IFR
Sep-25
14:46 UTC
  4 miles Overcast
600' AGL
10° C
50° F
C
48° F
94% 29.79" Hg
1008.9 hPa
IFR
Sep-25
14:26 UTC
  8 miles Overcast
600' AGL
10° C
50° F
C
48° F
94% 29.77" Hg
1008.2 hPa
IFR
Sep-25
14:22 UTC
  6 miles Overcast
600' AGL
10° C
50° F
C
48° F
94% 29.76" Hg
1008 hPa
IFR
Sep-25
14:02 UTC
  5 miles Overcast
600' AGL
10° C
50° F
C
48° F
94% 29.76" Hg
1007.8 hPa
IFR
Sep-25
13:13 UTC
  6 miles Overcast
600' AGL
10° C
50° F
C
48° F
94% 29.75" Hg
1007.5 hPa
IFR
Sep-25
13:00 UTC
  5 miles Overcast
800' AGL
10° C
50° F
C
48° F
94% 29.74" Hg
1007.2 hPa
IFR
Sep-25
12:51 UTC
  4 miles Overcast
800' AGL
10° C
50° F
C
48° F
94% 29.74" Hg
1007.4 hPa
IFR
Sep-25
12:48 UTC
  5 miles Overcast
800' AGL
10° C
50° F
C
48° F
94% 29.75" Hg
1007.5 hPa
IFR
Sep-25
12:26 UTC
  9 miles Overcast
800' AGL
10° C
50° F
C
48° F
94% 29.75" Hg
1007.5 hPa
IFR
Sep-25
12:00 UTC
  9 miles Broken
600' AGL
10° C
50° F
C
48° F
94% 29.74" Hg
1007.3 hPa
IFR
Sep-25
11:39 UTC
  9 miles Broken
600' AGL
10° C
50° F
C
48° F
94% 29.75" Hg
1007.7 hPa
IFR
Sep-25
11:23 UTC
  9 miles Broken
600' AGL
10° C
50° F
C
48° F
94% 29.76" Hg
1008 hPa
IFR
Sep-25
11:06 UTC
  2 1/2 miles Broken
600' AGL
10° C
50° F
C
48° F
94% 29.76" Hg
1008.1 hPa
IFR
Sep-25
10:37 UTC
  6 miles Broken
600' AGL
10° C
50° F
C
48° F
94% 29.71" Hg
1006.4 hPa
IFR
Sep-25
10:17 UTC
  4 miles Overcast
600' AGL
10° C
50° F
10° C
50° F
100% 29.7" Hg
1006 hPa
IFR
Sep-25
10:05 UTC
  5 miles Overcast
400' AGL
10° C
50° F
10° C
50° F
100% 29.72" Hg
1006.7 hPa
LIFR
Sep-25
09:50 UTC
  6 miles Overcast
400' AGL
10° C
50° F
10° C
50° F
100% 29.73" Hg
1007 hPa
LIFR
Sep-25
09:38 UTC
  5 miles Overcast
400' AGL
11° C
52° F
10° C
50° F
94% 29.75" Hg
1007.5 hPa
LIFR
Sep-25
09:17 UTC
  5 miles Overcast
400' AGL
11° C
52° F
10° C
50° F
94% 29.76" Hg
1008.1 hPa
LIFR
Sep-25
09:10 UTC
  6 miles Overcast
400' AGL
11° C
52° F
10° C
50° F
94% 29.77" Hg
1008.2 hPa
LIFR
Sep-25
09:04 UTC
  5 miles Overcast
400' AGL
11° C
52° F
10° C
50° F
94% 29.77" Hg
1008.3 hPa
LIFR
Sep-25
08:55 UTC
  6 miles Overcast
400' AGL
11° C
52° F
10° C
50° F
94% 29.78" Hg
1008.7 hPa
LIFR
Sep-25
08:40 UTC
  9 miles Overcast
400' AGL
11° C
52° F
10° C
50° F
94% 29.78" Hg
1008.6 hPa
LIFR
Sep-25
08:11 UTC
  9 miles Overcast
400' AGL
11° C
52° F
10° C
50° F
94% 29.76" Hg
1007.9 hPa
LIFR
Sep-25
08:00 UTC
  9 miles Overcast
400' AGL
11° C
52° F
10° C
50° F
94% 29.78" Hg
1008.6 hPa
LIFR
Sep-25
07:40 UTC
  6 miles Overcast
400' AGL
11° C
52° F
10° C
50° F
94% 29.8" Hg
1009.3 hPa
LIFR
Sep-25
07:20 UTC
  3 miles Overcast
400' AGL
10° C
50° F
10° C
50° F
100% 29.81" Hg
1009.5 hPa
LIFR
Sep-25
07:00 UTC
  1 3/4 miles Overcast
400' AGL
10° C
50° F
10° C
50° F
100% 29.82" Hg
1010 hPa
LIFR
Sep-25
06:55 UTC
  2 miles Overcast
400' AGL
10° C
50° F
10° C
50° F
100% 29.83" Hg
1010.2 hPa
LIFR
Sep-25
06:26 UTC
  3 miles Overcast
600' AGL
10° C
50° F
10° C
50° F
100% 29.83" Hg
1010.4 hPa
IFR
Sep-25
06:00 UTC
  9 miles Overcast
600' AGL
10° C
50° F
C
48° F
94% 29.85" Hg
1010.9 hPa
IFR
Sep-25
05:48 UTC
  9 miles Overcast
600' AGL
10° C
50° F
C
48° F
94% 29.85" Hg
1011.1 hPa
IFR
Sep-25
05:00 UTC
  9 miles Overcast
600' AGL
10° C
50° F
C
48° F
94% 29.88" Hg
1011.9 hPa
IFR
Sep-25
04:36 UTC
  5 miles Overcast
600' AGL
10° C
50° F
C
48° F
94% 29.89" Hg
1012.3 hPa
IFR
Sep-25
04:28 UTC
  9 miles Overcast
600' AGL
10° C
50° F
C
48° F
94% 29.89" Hg
1012.5 hPa
IFR
Sep-25
04:21 UTC
  9 miles Overcast
600' AGL
10° C
50° F
C
48° F
94% 29.89" Hg
1012.5 hPa
IFR
Sep-25
04:09 UTC
  6 miles Overcast
600' AGL
C
48° F
C
48° F
100% 29.9" Hg
1012.7 hPa
IFR
Sep-25
04:03 UTC
  5 miles Overcast
600' AGL
C
48° F
C
48° F
100% 29.91" Hg
1012.9 hPa
IFR
Sep-25
03:48 UTC
  6 miles Overcast
600' AGL
C
48° F
C
48° F
100% 29.91" Hg
1012.9 hPa
IFR
Sep-25
03:19 UTC
  5 miles Broken
800' AGL
C
48° F
C
48° F
100% 29.92" Hg
1013.5 hPa
IFR
Sep-25
03:04 UTC
  7 miles Broken
800' AGL
C
48° F
C
46° F
94% 29.94" Hg
1014 hPa
IFR
Sep-25
02:42 UTC
  6 miles Broken
1,000' AGL
C
48° F
C
46° F
94% 29.95" Hg
1014.4 hPa
MVFR
Sep-25
02:19 UTC
  5 miles Broken
1,000' AGL
C
48° F
C
46° F
94% 29.97" Hg
1015.2 hPa
MVFR
Sep-25
02:12 UTC
  7 miles Broken
1,200' AGL
C
48° F
C
46° F
94% 29.96" Hg
1014.9 hPa
MVFR
Sep-25
02:03 UTC
  6 miles Broken
1,400' AGL
C
48° F
C
46° F
94% 29.94" Hg
1014.1 hPa
MVFR